Location: Balmoral
(33.0667°S, 151.5833°E)
Time: 01:27:16
(UTC+00:00)

Cosmos 2227 Rocket - Pass Details

Date: 18 September 2020
Orbit: 840 x 844 km, 71.0° (Epoch: 21 October)

Event Time Altitude Azimuth Distance (km) Brightness Sun altitude
Rises 18:57:45 0° 328° (NNW) 3,387 5.0 -11.2°
Reaches altitude 10° 19:00:14 10° 323° (NW) 2,460 4.2 -10.7°
Maximum altitude 19:05:45 52° 246° (WSW) 1,046 2.4 -9.5°
Drops below altitude 10° 19:11:19 10° 170° (S) 2,491 4.8 -8.4°
Sets 19:13:52 0° 165° (SSE) 3,432 5.6 -7.8°
